Weather History for Marathon, FL

Change the Weather History Date:

Sunday, March 31, 2013

  Actual Average Record
Temperature  
Mean Temperature 78 °F 76 °F  
Max Temperature 84 °F 81 °F 89 °F (1997)
Min Temperature 72 °F 70 °F 57 °F (2003)
Degree Days  
Heating Degree Days 0 0  
Month to date heating degree days 23 0  
Since 1 July heating degree days 36 81  
Cooling Degree Days 13 11  
Month to date cooling degree days 193 283  
Year to date cooling degree days 788 665  
Growing Degree Days 27 (Base 50)    
Moisture  
Dew Point 61 °F    
Average Humidity 60    
Maximum Humidity 74    
Minimum Humidity 45    
Precipitation  
Precipitation 0.00 in 0.09 in 0.10 in (2008)
Month to date precipitation 1.39 2.39  
Year to date precipitation 3.77 6.21  
Snow  
Snow 0.00 in - - ()
Month to date snowfall 0.0  
Since 1 July snowfall 0.0  
Snow Depth 0.00 in    
Sea Level Pressure  
Sea Level Pressure 30.10 in    
Wind  
Wind Speed 7 mph (ESE)    
Max Wind Speed 10 mph    
Max Gust Speed 17 mph    
Visibility 10 miles    
Events      
T = Trace of Precipitation, MM = Missing Value Source: NWS Daily Summary

Daily Weather History Graph

Daily Weather History Graph

Search for Another Location

Airport:

Trip Planner

Search our weather history database for the weather conditions in past years. The results will help you decide how hot, cold, wet, or windy it might be!

Date:

Astronomy

Mar. 31, 2013 Rise Set
Actual Time 7:16 AM EDT 7:40 PM EDT
Civil Twilight 6:53 AM EDT 8:03 PM EDT
Nautical Twilight 6:27 AM EDT 8:29 PM EDT
Astronomical Twilight 6:00 AM EDT 8:56 PM EDT
Moon No Moon Rise 10:29 AM EDT (3/31)
Length of Visible Light 13h 09m
Length of Day
12h 23m
Waning Gibbous, 78% of the Moon is Illuminated
Mar 31
Waning Gibbous
Apr 3
Last Quarter
Apr 10
New
Apr 18
First Quarter
Apr 25
Full

Hourly Weather History & Observations

Time (EDT) Temp. Heat Index Dew Point Humidity Pressure Visibility Wind Dir Wind Speed Gust Speed Precip Events Conditions
12:53 AM 73.0 °F - 54.0 °F 51% 30.17 in 10.0 mi East 5.8 mph - N/A   Mostly Cloudy
1:53 AM 73.0 °F - 55.0 °F 53% 30.16 in 10.0 mi ESE 6.9 mph - N/A   Mostly Cloudy
2:53 AM 73.0 °F - 55.9 °F 55% 30.14 in 10.0 mi ESE 6.9 mph - N/A   Scattered Clouds
3:53 AM 73.0 °F - 57.0 °F 57% 30.12 in 10.0 mi East 4.6 mph - N/A   Scattered Clouds
4:53 AM 72.0 °F - 55.9 °F 57% 30.12 in 10.0 mi East 3.5 mph - N/A   Scattered Clouds
5:53 AM 73.0 °F - 57.9 °F 59% 30.12 in 10.0 mi ESE 5.8 mph - N/A   Clear
6:53 AM 73.0 °F - 57.0 °F 57% 30.12 in 10.0 mi ESE 5.8 mph - N/A   Clear
7:53 AM 73.0 °F - 59.0 °F 61% 30.13 in 10.0 mi ESE 5.8 mph - N/A   Clear
8:53 AM 75.9 °F - 60.1 °F 58% 30.14 in 10.0 mi ESE 6.9 mph - N/A   Scattered Clouds
9:53 AM 78.1 °F - 61.0 °F 56% 30.14 in 10.0 mi ESE 6.9 mph - N/A   Mostly Cloudy
10:53 AM 80.1 °F 80.6 °F 57.9 °F 47% 30.15 in 10.0 mi SE 6.9 mph - N/A   Clear
11:53 AM 81.0 °F 81.3 °F 59.0 °F 47% 30.14 in 10.0 mi SE 9.2 mph - N/A   Clear
12:53 PM 82.0 °F 82.4 °F 60.1 °F 47% 30.12 in 10.0 mi SE 9.2 mph 16.1 mph N/A   Clear
1:53 PM 82.9 °F 83.7 °F 62.1 °F 49% 30.10 in 10.0 mi SE 9.2 mph 17.3 mph N/A   Clear
2:53 PM 82.9 °F 84.0 °F 63.0 °F 51% 30.08 in 10.0 mi SE 6.9 mph - N/A   Clear
3:53 PM 82.0 °F 83.1 °F 63.0 °F 52% 30.06 in 10.0 mi SE 8.1 mph - N/A   Clear
4:53 PM 82.0 °F 83.4 °F 64.0 °F 54% 30.06 in 10.0 mi Variable 5.8 mph - N/A   Clear
5:53 PM 80.1 °F 81.7 °F 64.0 °F 58% 30.05 in 10.0 mi ESE 4.6 mph - N/A   Clear
6:53 PM 78.1 °F - 64.9 °F 64% 30.04 in 10.0 mi ESE 5.8 mph - N/A   Clear
7:53 PM 77.0 °F - 64.9 °F 66% 30.04 in 10.0 mi ESE 4.6 mph - N/A   Clear
8:53 PM 77.0 °F - 66.9 °F 71% 30.05 in 10.0 mi ESE 5.8 mph - N/A   Clear
9:53 PM 77.0 °F - 66.9 °F 71% 30.06 in 10.0 mi SE 6.9 mph - N/A   Clear
10:53 PM 77.0 °F - 68.0 °F 74% 30.07 in 10.0 mi SE 6.9 mph - N/A   Clear
11:53 PM 77.0 °F - 68.0 °F 74% 30.07 in 10.0 mi SE 5.8 mph - N/A   Partly Cloudy